Tracking 19638 objects as of 19-May-2019
HD Live streaming from Space Station
objects crossing your sky now

SACI 1

Track SACI 1 now!
10-day predictions
SACI 1 is classified as:


NORAD ID: 25941
Int'l Code: 1999-057B
Perigee: 721.4 km
Apogee: 732.0 km
Inclination: 98.5 °
Period: 99.2 minutes
Semi major axis: 7097 km
RCS: 0.6045 m2 (medium)
Launch date: October 14, 1999
Source: Brazil (BRAZ)
Launch site: Taiyaun Space Center, China (TSC)
aabbcc
Your satellite tracking list
Your tracking list is empty




NASA's NSSDC Master Catalog

Two Line Element Set (TLE):
1 25941U 99057B   19138.83061115  .00000031  00000-0  19373-4 0  9999
2 25941  98.5222  72.6888 0007430 251.0541 108.9848 14.51863240 37105
Source of the keplerian elements: AFSPC